Notices

What's New in latest Release from April 7th, 2021:

- Updated Glossary, including Speed of Maximum Gust, and Total Hourly Precipitation

- Updated national and regional climate services offices contacts and prices information

- Addition of station inventory lists for 1981-2010, 1971-2000, and 1961-1990 Normals.

If you haven't already, please take our survey and provide feedback about our website: https://eccc.sondage-survey.ca/f/LanguageSelection.aspx?s=442ca660-fcf1-47c0-95a9-59707d6fd709

Hourly Data Report for December 27, 2020

MUSKOKA
ONTARIO
Current Station Operator: NAVCAN

44°58'29.000" N
79°18'12.000" W
281.90 m
6115529
71532
YQA

Download Data

Hourly Data (December 2020)
Hourly Data Report for December 27, 2020
TIME
LST
Temp Definition
°C
Dew Point Definition
°C
Rel Hum Definition
%
Precip. Amount Definition
mm

Wind Dir Definition
10's deg

Wind Spd Definition
km/h
Visibility Definition
km
Stn Press Definition
kPa
Hmdx Definition


Wind Chill Definition


Weather Definition


00:00 -8.8 -11.2 83 LegendMM LegendMM 4 16.1 97.87   -11 Snow
01:00 -8.8 -11.2 83 LegendMM LegendMM 4 16.1 97.95   -11 Snow
02:00 -9.3 -11.5 84 LegendMM   0 16.1 98.02     Snow
03:00 -9.3 -11.2 86 LegendMM 16 8 16.1 98.06   -14 Snow
04:00 -8.9 -10.4 89 LegendMM 20 5 16.1 98.16   -12 Snow
05:00 -8.9 -10.4 89 LegendMM LegendMM 4 16.1 98.23   -11 Snow
06:00 -8.6 -10.0 90 LegendMM 16 4 16.1 98.35   -11 Snow
07:00 -8.6 -9.8 91 LegendMM 13 5 16.1 98.41   -11 Snow
08:00 -8.4 -9.9 89 LegendMM 15 5 16.1 98.44   -11 Snow
09:00 -8.0 -9.4 90 LegendMM 13 8 16.1 98.46   -12 Snow
10:00 -7.5 -9.2 88 LegendMM 13 8 16.1 98.52   -12 Snow
11:00 -6.6 -8.4 87 LegendMM 13 8 16.1 98.57   -10 LegendNANA
12:00 -5.7 -7.5 87 LegendMM 13 11 16.1 98.45   -10 LegendNANA
13:00 -5.0 -6.7 88 LegendMM 13 11 16.1 98.39   -10 LegendNANA
14:00 -4.1 -6.0 87 LegendMM 13 11 16.1 98.31   -9 LegendNANA
15:00 -3.5 -5.4 87 LegendMM 13 11 16.1 98.29   -8 LegendNANA
16:00 -3.5 -5.5 86 LegendMM 14 21 16.1 98.27   -10 LegendNANA
17:00 -3.8 -5.2 90 LegendMM 12 17 16.1 98.24   -10 LegendNANA
18:00 -4.0 -5.4 90 LegendMM 11 15 16.1 98.17   -9 LegendNANA
19:00 -4.6 -6.0 90 LegendMM 13 21 16.1 98.05   -11 LegendNANA
20:00 -4.2 -5.7 90 LegendMM 12 24 16.1 97.92   -11 LegendNANA
21:00 -3.4 -5.0 89 LegendMM 12 21 16.1 97.81   -10 LegendNANA
22:00 -2.3 -4.0 88 LegendMM 12 22 16.1 97.72   -8 LegendNANA
23:00 -1.9 -3.2 91 LegendMM 12 11 16.1 97.65   -6 Snow

Notes on Data Quality.

Legend

  • E = Estimated
  • M = Missing
  • NA = Not Available*
  • [empty] = Indicates an unobserved value
Date modified: